Hourly Data Report for October 19, 2015

All times are specified in Local Standard Time (LST). Add 1 hour to adjust for Daylight Saving Time where and when it is observed.

PANGNIRTUNG
NUNAVUT

66°08'36.300" N
65°42'40.500" W
22.60 m
2403049
71826
WXP

Download Data

Hourly Data (October 2015)
Hourly Data Report for October 19, 2015
Temp Definition
°C
Dew Point Temp Definition
°C
Rel Hum Definition
%
Wind Dir Definition
10's deg

Wind Spd Definition
km/h
Visibility Definition
km
Stn Press Definition
kPa
Hmdx Definition


Wind Chill Definition


Weather Definition


TIME
00:00 -9.1 -13.4 70 9 8   100.51   -13 LegendNANA
01:00 -8.8 -13.8 67 9 8   100.51   -13 LegendNANA
02:00 -8.8 -13.9 67 10 5   100.51   -12 LegendNANA
03:00 -9.3 -14.1 68 9 5   100.49   -12 LegendNANA
04:00 -8.5 -14.4 62 10 2   100.50   -10 LegendNANA
05:00 -8.5 -14.7 61 11 4   100.49   -11 LegendNANA
06:00 -8.0 -14.6 59 9 8   100.48   -12 LegendNANA
07:00 -7.8 -14.3 60 8 7   100.45   -11 LegendNANA
08:00 -8.0 -13.9 63 10 8   100.44   -12 LegendNANA
09:00 -7.7 -13.3 64 9 10   100.44   -13 LegendNANA
10:00 -7.4 -13.1 64 8 12   100.40   -13 LegendNANA
11:00 -7.0 -12.8 63 7 12   100.39   -12 LegendNANA
12:00 -7.4 -12.6 66 7 12   100.37   -13 LegendNANA
13:00 -7.3 -12.3 67 7 11   100.35   -12 LegendNANA
14:00 -7.6 -13.3 63 7 15   100.33   -14 LegendNANA
15:00 -7.3 -13.1 63 7 13   100.31   -13 LegendNANA
16:00 -7.5 -13.2 64 8 14   100.30   -13 LegendNANA
17:00 -7.4 -13.2 63 6 15   100.32   -14 LegendNANA
18:00 -7.7 -13.2 65 8 11   100.31   -13 LegendNANA
19:00 -7.3 -13.1 63 6 13   100.32   -13 LegendNANA
20:00 -7.4 -13.7 61 7 16   100.31   -14 LegendNANA
21:00 -7.6 -13.6 62 7 16   100.28   -14 LegendNANA
22:00 -7.4 -13.6 61 7 15   100.29   -14 LegendNANA
23:00 -7.3 -13.3 62 8 16   100.29   -14 LegendNANA

Notes on Data Quality.

Legend

  • E = Estimated
  • M = Missing
  • NA = Not Available
  • ‡ = Partner data that is not subject to review by the National Climate Archives
Date modified: